Location: ??????
(38.1303°N, 24.0039°E)
Time: 11:59:33
(UTC+00:00)

DELTA 2 R/B (1) - Pass Details

Date: 20 June 2021
Orbit: 789 x 803 km, 39.6° (Epoch: 02 August)

Event Time Altitude Azimuth Distance (km) Brightness Sun altitude
Rises 01:58:11 0° 281° (W) 3,277 6.4 -10.8°
Reaches altitude 10° 02:00:39 10° 282° (WNW) 2,348 5.7 -10.4°
Maximum altitude 02:06:12 89° 10° (N) 794 3.6 -9.6°
Drops below altitude 10° 02:11:47 10° 103° (ESE) 2,352 6.6 -8.8°
Sets 02:14:15 0° 103° (ESE) 3,283 7.4 -8.4°
